Time,TemperatureF,DewpointF,PressureIn,WindDirection,WindDirectionDegrees,WindSpeedMPH,WindSpeedGustMPH,Humidity,HourlyPrecipIn,Conditions,Clouds,dailyrainin,SolarRadiationWatts/m^2,SoftwareType,DateUTC
2013-03-29 00:03:00,64.2,21.0,30.11,East,86,1.0,2.0,19,0.00,,,0.00,0.0,meteohub,2013-03-29 07:03:00,
2013-03-29 00:08:00,64.2,21.0,30.11,East,86,0.0,2.0,19,0.00,,,0.00,0.0,meteohub,2013-03-29 07:08:00,
2013-03-29 00:13:00,64.0,21.0,30.11,East,86,1.0,1.0,19,0.00,,,0.00,0.0,meteohub,2013-03-29 07:13:00,
2013-03-29 00:18:00,63.7,20.7,30.11,East,86,0.0,2.0,19,0.00,,,0.00,0.0,meteohub,2013-03-29 07:18:00,
2013-03-29 00:23:00,63.5,20.5,30.11,East,86,0.0,2.0,19,0.00,,,0.00,0.0,meteohub,2013-03-29 07:23:00,
2013-03-29 00:28:00,63.3,21.6,30.11,East,86,0.0,2.0,20,0.00,,,0.00,0.0,meteohub,2013-03-29 07:28:00,
2013-03-29 00:33:00,63.1,21.4,30.11,East,86,0.0,2.0,20,0.00,,,0.00,0.0,meteohub,2013-03-29 07:33:00,
2013-03-29 00:38:00,62.8,21.0,30.11,East,85,0.0,1.0,20,0.00,,,0.00,0.0,meteohub,2013-03-29 07:38:00,
2013-03-29 00:43:00,62.4,20.8,30.11,East,86,0.0,1.0,20,0.00,,,0.00,0.0,meteohub,2013-03-29 07:43:00,
2013-03-29 00:48:00,62.1,21.7,30.11,East,86,0.0,1.0,21,0.00,,,0.00,0.0,meteohub,2013-03-29 07:48:00,
2013-03-29 00:53:00,61.7,21.4,30.12,East,86,0.0,1.0,21,0.00,,,0.00,0.0,meteohub,2013-03-29 07:53:00,
2013-03-29 00:58:00,61.3,22.1,30.12,East,86,1.0,2.0,22,0.00,,,0.00,0.0,meteohub,2013-03-29 07:58:00,
2013-03-29 01:03:00,61.2,21.9,30.11,East,86,1.0,2.0,22,0.00,,,0.00,0.0,meteohub,2013-03-29 08:03:00,
2013-03-29 01:08:00,60.8,21.7,30.12,East,86,1.0,2.0,22,0.00,,,0.00,0.0,meteohub,2013-03-29 08:08:00,
2013-03-29 01:13:00,60.6,21.6,30.12,East,86,1.0,2.0,22,0.00,,,0.00,0.0,meteohub,2013-03-29 08:13:00,
2013-03-29 01:18:00,60.4,21.4,30.11,East,86,0.0,2.0,22,0.00,,,0.00,0.0,meteohub,2013-03-29 08:18:00,
2013-03-29 01:23:00,60.3,21.2,30.11,East,86,1.0,2.0,22,0.00,,,0.00,0.0,meteohub,2013-03-29 08:23:00,
2013-03-29 01:28:00,60.1,22.1,30.11,East,86,1.0,2.0,23,0.00,,,0.00,0.0,meteohub,2013-03-29 08:28:00,
2013-03-29 01:33:00,60.1,21.0,30.11,East,86,0.0,2.0,22,0.00,,,0.00,0.0,meteohub,2013-03-29 08:33:00,
2013-03-29 01:38:00,60.3,22.3,30.11,East,86,0.0,1.0,23,0.00,,,0.00,0.0,meteohub,2013-03-29 08:38:00,
2013-03-29 01:44:00,59.7,21.9,30.11,East,86,0.0,1.0,23,0.00,,,0.00,0.0,meteohub,2013-03-29 08:44:00,
2013-03-29 01:48:00,59.4,22.6,30.11,East,86,0.0,1.0,24,0.00,,,0.00,0.0,meteohub,2013-03-29 08:48:00,
2013-03-29 01:54:00,58.8,23.0,30.11,East,86,0.0,1.0,25,0.00,,,0.00,0.0,meteohub,2013-03-29 08:54:00,
2013-03-29 01:59:00,58.5,22.8,30.11,East,86,0.0,1.0,25,0.00,,,0.00,0.0,meteohub,2013-03-29 08:59:00,
2013-03-29 02:04:00,58.1,23.4,30.11,East,86,0.0,1.0,26,0.00,,,0.00,0.0,meteohub,2013-03-29 09:04:00,
2013-03-29 02:09:00,57.6,23.0,30.11,East,86,1.0,1.0,26,0.00,,,0.00,0.0,meteohub,2013-03-29 09:09:00,
2013-03-29 02:14:00,57.0,23.4,30.11,East,86,1.0,1.0,27,0.00,,,0.00,0.0,meteohub,2013-03-29 09:14:00,
2013-03-29 02:19:00,56.5,21.9,30.11,East,86,1.0,1.0,26,0.00,,,0.00,0.0,meteohub,2013-03-29 09:19:00,
2013-03-29 02:24:00,56.5,21.0,30.10,East,86,1.0,1.0,25,0.00,,,0.00,0.0,meteohub,2013-03-29 09:24:00,
2013-03-29 02:29:00,57.2,21.7,30.10,East,86,0.0,2.0,25,0.00,,,0.00,0.0,meteohub,2013-03-29 09:29:00,
2013-03-29 02:34:00,57.7,21.2,30.10,East,86,1.0,2.0,24,0.00,,,0.00,0.0,meteohub,2013-03-29 09:34:00,
2013-03-29 02:39:00,57.9,22.3,30.10,East,86,1.0,2.0,25,0.00,,,0.00,0.0,meteohub,2013-03-29 09:39:00,
2013-03-29 02:44:00,57.9,22.3,30.10,East,86,1.0,2.0,25,0.00,,,0.00,0.0,meteohub,2013-03-29 09:44:00,
2013-03-29 02:49:00,57.7,22.1,30.10,East,86,0.0,2.0,25,0.00,,,0.00,0.0,meteohub,2013-03-29 09:49:00,
2013-03-29 02:54:00,57.6,23.0,30.10,East,86,1.0,1.0,26,0.00,,,0.00,0.0,meteohub,2013-03-29 09:54:00,
2013-03-29 02:59:00,57.0,22.5,30.10,East,86,0.0,1.0,26,0.00,,,0.00,0.0,meteohub,2013-03-29 09:59:00,
2013-03-29 03:04:00,56.7,22.1,30.09,East,86,0.0,1.0,26,0.00,,,0.00,0.0,meteohub,2013-03-29 10:04:00,
2013-03-29 03:09:00,56.1,21.7,30.09,East,86,0.0,1.0,26,0.00,,,0.00,0.0,meteohub,2013-03-29 10:09:00,
2013-03-29 03:14:00,55.8,22.3,30.09,East,86,1.0,1.0,27,0.00,,,0.00,0.0,meteohub,2013-03-29 10:14:00,
2013-03-29 03:19:00,55.4,21.9,30.09,East,86,1.0,1.0,27,0.00,,,0.00,0.0,meteohub,2013-03-29 10:19:00,
2013-03-29 03:24:00,55.0,22.5,30.09,East,86,0.0,1.0,28,0.00,,,0.00,0.0,meteohub,2013-03-29 10:24:00,
2013-03-29 03:29:00,54.9,22.3,30.09,East,86,0.0,2.0,28,0.00,,,0.00,0.0,meteohub,2013-03-29 10:29:00,
2013-03-29 03:34:00,54.7,23.0,30.09,East,86,0.0,2.0,29,0.00,,,0.00,0.0,meteohub,2013-03-29 10:34:00,
2013-03-29 03:39:00,54.3,22.6,30.09,East,86,0.0,1.0,29,0.00,,,0.00,0.0,meteohub,2013-03-29 10:39:00,
2013-03-29 03:44:00,54.0,23.2,30.09,East,86,0.0,1.0,30,0.00,,,0.00,0.0,meteohub,2013-03-29 10:44:00,
2013-03-29 03:49:00,53.4,22.8,30.09,East,86,1.0,1.0,30,0.00,,,0.00,0.0,meteohub,2013-03-29 10:49:00,
2013-03-29 03:54:00,53.2,22.6,30.09,East,86,0.0,1.0,30,0.00,,,0.00,0.0,meteohub,2013-03-29 10:54:00,
2013-03-29 03:59:00,53.2,23.4,30.09,East,86,0.0,2.0,31,0.00,,,0.00,0.0,meteohub,2013-03-29 10:59:00,
2013-03-29 04:04:00,53.1,23.2,30.09,East,86,0.0,2.0,31,0.00,,,0.00,0.0,meteohub,2013-03-29 11:04:00,
2013-03-29 04:09:00,52.9,23.9,30.10,East,86,0.0,2.0,32,0.00,,,0.00,0.0,meteohub,2013-03-29 11:09:00,
2013-03-29 04:14:00,52.5,23.5,30.10,East,86,1.0,1.0,32,0.00,,,0.00,0.0,meteohub,2013-03-29 11:14:00,
2013-03-29 04:19:00,52.3,23.4,30.10,East,86,0.0,1.0,32,0.00,,,0.00,0.0,meteohub,2013-03-29 11:19:00,
2013-03-29 04:24:00,52.2,22.5,30.10,East,86,0.0,1.0,31,0.00,,,0.00,0.0,meteohub,2013-03-29 11:24:00,
2013-03-29 04:29:00,52.0,23.0,30.10,East,86,0.0,2.0,32,0.00,,,0.00,0.0,meteohub,2013-03-29 11:29:00,
2013-03-29 04:34:00,52.0,23.0,30.10,East,86,2.0,2.0,32,0.00,,,0.00,0.0,meteohub,2013-03-29 11:34:00,
2013-03-29 04:39:00,52.2,23.2,30.11,East,86,0.0,2.0,32,0.00,,,0.00,0.0,meteohub,2013-03-29 11:39:00,
2013-03-29 04:44:00,52.5,22.8,30.11,East,86,0.0,2.0,31,0.00,,,0.00,0.0,meteohub,2013-03-29 11:44:00,
2013-03-29 04:49:00,52.5,23.5,30.11,East,86,1.0,2.0,32,0.00,,,0.00,0.0,meteohub,2013-03-29 11:49:00,
2013-03-29 04:54:00,52.3,24.1,30.11,East,86,0.0,1.0,33,0.00,,,0.00,0.0,meteohub,2013-03-29 11:54:00,
2013-03-29 04:59:00,52.2,23.9,30.11,East,86,0.0,1.0,33,0.00,,,0.00,0.0,meteohub,2013-03-29 11:59:00,
2013-03-29 05:04:00,52.0,24.4,30.11,East,86,0.0,1.0,34,0.00,,,0.00,0.0,meteohub,2013-03-29 12:04:00,
2013-03-29 05:09:00,51.4,24.1,30.11,East,86,1.0,1.0,34,0.00,,,0.00,0.0,meteohub,2013-03-29 12:09:00,
2013-03-29 05:14:00,51.3,24.6,30.11,East,86,1.0,1.0,35,0.00,,,0.00,0.0,meteohub,2013-03-29 12:14:00,
2013-03-29 05:19:00,50.9,24.3,30.11,East,86,0.0,2.0,35,0.00,,,0.00,0.0,meteohub,2013-03-29 12:19:00,
2013-03-29 05:24:00,50.5,23.9,30.12,East,86,0.0,2.0,35,0.00,,,0.00,0.0,meteohub,2013-03-29 12:24:00,
2013-03-29 05:29:00,50.2,23.5,30.12,East,86,0.0,2.0,35,0.00,,,0.00,0.0,meteohub,2013-03-29 12:29:00,
2013-03-29 05:34:00,49.8,23.9,30.12,East,86,0.0,2.0,36,0.00,,,0.00,0.0,meteohub,2013-03-29 12:34:00,
2013-03-29 05:40:00,49.6,24.4,30.12,East,86,0.0,2.0,37,0.00,,,0.00,0.0,meteohub,2013-03-29 12:40:00,
2013-03-29 05:45:00,49.5,23.5,30.12,East,86,1.0,1.0,36,0.00,,,0.00,0.0,meteohub,2013-03-29 12:45:00,
2013-03-29 05:50:00,49.5,23.5,30.12,East,85,0.0,1.0,36,0.00,,,0.00,0.0,meteohub,2013-03-29 12:50:00,
2013-03-29 05:55:00,49.8,23.9,30.12,East,85,1.0,1.0,36,0.00,,,0.00,0.0,meteohub,2013-03-29 12:55:00,
2013-03-29 06:00:00,50.2,23.5,30.12,East,86,0.0,2.0,35,0.00,,,0.00,0.0,meteohub,2013-03-29 13:00:00,
2013-03-29 06:05:00,50.2,23.5,30.12,East,86,0.0,2.0,35,0.00,,,0.00,0.0,meteohub,2013-03-29 13:05:00,
2013-03-29 06:10:00,50.5,23.9,30.12,East,86,0.0,2.0,35,0.00,,,0.00,0.0,meteohub,2013-03-29 13:10:00,
2013-03-29 06:15:00,50.5,23.9,30.12,East,86,0.0,2.0,35,0.00,,,0.00,5.0,meteohub,2013-03-29 13:15:00,
2013-03-29 06:20:00,50.2,25.0,30.12,East,85,0.0,2.0,37,0.00,,,0.00,7.0,meteohub,2013-03-29 13:20:00,
2013-03-29 06:25:00,50.0,25.3,30.12,East,86,0.0,1.0,38,0.00,,,0.00,12.0,meteohub,2013-03-29 13:25:00,
2013-03-29 06:30:00,49.6,25.0,30.12,East,86,0.0,1.0,38,0.00,,,0.00,16.0,meteohub,2013-03-29 13:30:00,
2013-03-29 06:35:00,49.6,25.7,30.12,East,85,0.0,1.0,39,0.00,,,0.00,19.0,meteohub,2013-03-29 13:35:00,
2013-03-29 06:40:00,49.6,26.2,30.12,East,86,1.0,1.0,40,0.00,,,0.00,32.0,meteohub,2013-03-29 13:40:00,
2013-03-29 06:45:00,50.0,26.1,30.12,East,86,1.0,2.0,39,0.00,,,0.00,42.0,meteohub,2013-03-29 13:45:00,
2013-03-29 06:50:00,50.7,26.6,30.12,East,86,0.0,2.0,39,0.00,,,0.00,56.0,meteohub,2013-03-29 13:50:00,
2013-03-29 06:55:00,52.0,27.1,30.12,East,86,0.0,2.0,38,0.00,,,0.00,53.0,meteohub,2013-03-29 13:55:00,
2013-03-29 07:00:00,53.1,26.8,30.12,East,86,1.0,1.0,36,0.00,,,0.00,81.0,meteohub,2013-03-29 14:00:00,
2013-03-29 07:05:00,54.7,26.1,30.12,East,86,0.0,1.0,33,0.00,,,0.00,107.0,meteohub,2013-03-29 14:05:00,
2013-03-29 07:10:00,56.3,27.5,30.12,East,86,1.0,2.0,33,0.00,,,0.00,130.0,meteohub,2013-03-29 14:10:00,
2013-03-29 07:15:00,57.6,28.6,30.13,East,86,0.0,2.0,33,0.00,,,0.00,151.0,meteohub,2013-03-29 14:15:00,
2013-03-29 07:20:00,58.8,27.5,30.13,East,86,0.0,2.0,30,0.00,,,0.00,176.0,meteohub,2013-03-29 14:20:00,
2013-03-29 07:25:00,60.4,26.2,30.13,East,86,1.0,1.0,27,0.00,,,0.00,197.0,meteohub,2013-03-29 14:25:00,
2013-03-29 07:30:00,61.7,25.5,30.13,East,86,1.0,3.0,25,0.00,,,0.00,214.0,meteohub,2013-03-29 14:30:00,
2013-03-29 07:35:00,62.6,26.2,30.14,East,97,1.0,3.0,25,0.00,,,0.00,234.0,meteohub,2013-03-29 14:35:00,
2013-03-29 07:40:00,63.1,25.7,30.14,East,97,1.0,3.0,24,0.00,,,0.00,250.0,meteohub,2013-03-29 14:40:00,
2013-03-29 07:45:00,63.9,26.4,30.14,East,98,1.0,3.0,24,0.00,,,0.00,265.0,meteohub,2013-03-29 14:45:00,
2013-03-29 07:50:00,64.6,27.0,30.14,East,101,1.0,2.0,24,0.00,,,0.00,288.0,meteohub,2013-03-29 14:50:00,
2013-03-29 07:55:00,65.5,26.8,30.14,East,101,1.0,2.0,23,0.00,,,0.00,295.0,meteohub,2013-03-29 14:55:00,
2013-03-29 08:00:00,66.4,27.5,30.14,East,101,1.0,2.0,23,0.00,,,0.00,329.0,meteohub,2013-03-29 15:00:00,
2013-03-29 08:05:00,67.3,26.1,30.14,East,101,1.0,2.0,21,0.00,,,0.00,348.0,meteohub,2013-03-29 15:05:00,
2013-03-29 08:10:00,68.2,25.5,30.14,East,101,2.0,2.0,20,0.00,,,0.00,367.0,meteohub,2013-03-29 15:10:00,
2013-03-29 08:15:00,69.6,25.5,30.14,East,101,1.0,2.0,19,0.00,,,0.00,387.0,meteohub,2013-03-29 15:15:00,
2013-03-29 08:20:00,70.9,25.3,30.14,ESE,102,0.0,3.0,18,0.00,,,0.00,406.0,meteohub,2013-03-29 15:20:00,
2013-03-29 08:25:00,72.0,24.8,30.14,ESE,102,1.0,3.0,17,0.00,,,0.00,422.0,meteohub,2013-03-29 15:25:00,
2013-03-29 08:30:00,72.3,25.0,30.14,ESE,111,2.0,3.0,17,0.00,,,0.00,439.0,meteohub,2013-03-29 15:30:00,
2013-03-29 08:35:00,72.7,23.9,30.14,ESE,114,0.0,3.0,16,0.00,,,0.00,457.0,meteohub,2013-03-29 15:35:00,
2013-03-29 08:40:00,72.7,23.9,30.14,WSW,254,1.0,3.0,16,0.00,,,0.00,476.0,meteohub,2013-03-29 15:40:00,
2013-03-29 08:45:00,73.0,24.3,30.14,WNW,287,1.0,4.0,16,0.00,,,0.00,494.0,meteohub,2013-03-29 15:45:00,
2013-03-29 08:50:00,73.2,24.3,30.14,West,262,2.0,4.0,16,0.00,,,0.00,512.0,meteohub,2013-03-29 15:50:00,
2013-03-29 08:55:00,73.8,24.8,30.14,West,270,3.0,4.0,16,0.00,,,0.00,531.0,meteohub,2013-03-29 15:55:00,
2013-03-29 09:00:00,73.9,25.0,30.14,West,268,1.0,4.0,16,0.00,,,0.00,547.0,meteohub,2013-03-29 16:00:00,
2013-03-29 09:06:00,74.1,25.0,30.14,West,268,3.0,4.0,16,0.00,,,0.00,564.0,meteohub,2013-03-29 16:06:00,
2013-03-29 09:11:00,74.7,23.9,30.14,WSW,258,1.0,4.0,15,0.00,,,0.00,578.0,meteohub,2013-03-29 16:11:00,
2013-03-29 09:16:00,74.8,24.1,30.14,West,261,1.0,4.0,15,0.00,,,0.00,594.0,meteohub,2013-03-29 16:16:00,
2013-03-29 09:21:00,75.2,24.4,30.14,SW,218,4.0,4.0,15,0.00,,,0.00,612.0,meteohub,2013-03-29 16:21:00,
2013-03-29 09:26:00,75.0,24.3,30.14,SSW,209,2.0,6.0,15,0.00,,,0.00,628.0,meteohub,2013-03-29 16:26:00,
2013-03-29 09:31:00,75.4,24.4,30.14,SSW,212,2.0,6.0,15,0.00,,,0.00,642.0,meteohub,2013-03-29 16:31:00,
2013-03-29 09:36:00,75.7,26.4,30.14,SW,234,2.0,6.0,16,0.00,,,0.00,654.0,meteohub,2013-03-29 16:36:00,
2013-03-29 09:41:00,76.1,26.6,30.14,West,264,5.0,6.0,16,0.00,,,0.00,671.0,meteohub,2013-03-29 16:41:00,
2013-03-29 09:46:00,75.9,26.4,30.14,SSW,205,2.0,6.0,16,0.00,,,0.00,687.0,meteohub,2013-03-29 16:46:00,
2013-03-29 09:52:00,76.5,25.3,30.14,West,267,3.0,6.0,15,0.00,,,0.00,700.0,meteohub,2013-03-29 16:52:00,
2013-03-29 09:57:00,76.3,25.2,30.14,West,267,3.0,6.0,15,0.00,,,0.00,717.0,meteohub,2013-03-29 16:57:00,
2013-03-29 10:02:00,76.8,25.7,30.14,West,260,3.0,6.0,15,0.00,,,0.00,731.0,meteohub,2013-03-29 17:02:00,
2013-03-29 10:07:00,77.5,26.2,30.14,SW,219,3.0,6.0,15,0.00,,,0.00,745.0,meteohub,2013-03-29 17:07:00,
2013-03-29 10:12:00,77.7,26.4,30.14,WSW,254,2.0,6.0,15,0.00,,,0.00,759.0,meteohub,2013-03-29 17:12:00,
2013-03-29 10:17:00,78.3,26.8,30.14,West,275,1.0,6.0,15,0.00,,,0.00,770.0,meteohub,2013-03-29 17:17:00,
2013-03-29 10:22:00,78.6,27.1,30.14,WNW,290,1.0,5.0,15,0.00,,,0.00,782.0,meteohub,2013-03-29 17:22:00,
2013-03-29 10:27:00,79.2,29.1,30.14,West,265,3.0,5.0,16,0.00,,,0.00,795.0,meteohub,2013-03-29 17:27:00,
2013-03-29 10:32:00,78.6,28.8,30.14,WSW,247,2.0,5.0,16,0.00,,,0.00,809.0,meteohub,2013-03-29 17:32:00,
2013-03-29 10:37:00,79.0,30.4,30.14,WNW,296,2.0,7.0,17,0.00,,,0.00,816.0,meteohub,2013-03-29 17:37:00,
2013-03-29 10:42:00,79.5,29.5,30.14,NW,324,2.0,7.0,16,0.00,,,0.00,824.0,meteohub,2013-03-29 17:42:00,
2013-03-29 10:47:00,79.9,34.0,30.14,West,265,3.0,7.0,19,0.00,,,0.00,838.0,meteohub,2013-03-29 17:47:00,
2013-03-29 10:52:00,79.9,34.0,30.14,West,275,3.0,5.0,19,0.00,,,0.00,851.0,meteohub,2013-03-29 17:52:00,
2013-03-29 10:57:00,79.5,30.9,30.14,WSW,252,2.0,6.0,17,0.00,,,0.00,860.0,meteohub,2013-03-29 17:57:00,
2013-03-29 11:02:00,79.3,33.4,30.14,SW,234,3.0,8.0,19,0.00,,,0.00,867.0,meteohub,2013-03-29 18:02:00,
2013-03-29 11:07:00,79.7,33.8,30.14,SW,214,3.0,8.0,19,0.00,,,0.00,877.0,meteohub,2013-03-29 18:07:00,
2013-03-29 11:12:00,80.2,32.9,30.14,SSW,208,4.0,8.0,18,0.00,,,0.00,884.0,meteohub,2013-03-29 18:12:00,
2013-03-29 11:17:00,80.1,31.3,30.14,WSW,238,2.0,7.0,17,0.00,,,0.00,889.0,meteohub,2013-03-29 18:17:00,
2013-03-29 11:22:00,80.2,32.9,30.14,NW,307,3.0,7.0,18,0.00,,,0.00,900.0,meteohub,2013-03-29 18:22:00,
2013-03-29 11:27:00,80.4,31.6,30.14,WSW,258,4.0,7.0,17,0.00,,,0.00,909.0,meteohub,2013-03-29 18:27:00,
2013-03-29 11:32:00,80.6,30.2,30.13,NW,305,3.0,6.0,16,0.00,,,0.00,916.0,meteohub,2013-03-29 18:32:00,
2013-03-29 11:37:00,80.6,30.2,30.13,WSW,244,3.0,10.0,16,0.00,,,0.00,921.0,meteohub,2013-03-29 18:37:00,
2013-03-29 11:42:00,81.1,29.1,30.13,West,269,5.0,10.0,15,0.00,,,0.00,926.0,meteohub,2013-03-29 18:42:00,
2013-03-29 11:47:00,81.0,28.9,30.13,South,184,1.0,7.0,15,0.00,,,0.00,933.0,meteohub,2013-03-29 18:47:00,
2013-03-29 11:52:00,81.5,29.5,30.13,South,169,4.0,7.0,15,0.00,,,0.00,939.0,meteohub,2013-03-29 18:52:00,
2013-03-29 11:58:00,81.7,27.9,30.13,SW,218,5.0,7.0,14,0.00,,,0.00,944.0,meteohub,2013-03-29 18:58:00,
2013-03-29 12:03:00,81.3,27.5,30.12,SE,140,2.0,7.0,14,0.00,,,0.00,946.0,meteohub,2013-03-29 19:03:00,
2013-03-29 12:08:00,81.9,24.3,30.12,SW,225,4.0,7.0,12,0.00,,,0.00,954.0,meteohub,2013-03-29 19:08:00,
2013-03-29 12:13:00,82.0,22.3,30.12,South,173,7.0,7.0,11,0.00,,,0.00,958.0,meteohub,2013-03-29 19:13:00,
2013-03-29 12:18:00,82.2,22.5,30.12,WSW,237,2.0,9.0,11,0.00,,,0.00,958.0,meteohub,2013-03-29 19:18:00,
2013-03-29 12:23:00,82.0,22.3,30.12,ESE,112,1.0,9.0,11,0.00,,,0.00,953.0,meteohub,2013-03-29 19:23:00,
2013-03-29 12:28:00,82.0,22.3,30.12,SW,226,5.0,9.0,11,0.00,,,0.00,958.0,meteohub,2013-03-29 19:28:00,
2013-03-29 12:33:00,82.6,22.8,30.11,SW,229,2.0,8.0,11,0.00,,,0.00,954.0,meteohub,2013-03-29 19:33:00,
2013-03-29 12:38:00,83.3,21.0,30.11,WNW,292,10.0,10.0,10,0.00,,,0.00,954.0,meteohub,2013-03-29 19:38:00,
2013-03-29 12:43:00,83.1,18.5,30.11,West,271,6.0,10.0,9,0.00,,,0.00,954.0,meteohub,2013-03-29 19:43:00,
2013-03-29 12:48:00,82.8,18.1,30.11,West,269,1.0,10.0,9,0.00,,,0.00,954.0,meteohub,2013-03-29 19:48:00,
2013-03-29 12:53:00,82.9,20.8,30.11,SSE,148,2.0,10.0,10,0.00,,,0.00,953.0,meteohub,2013-03-29 19:53:00,
2013-03-29 12:58:00,83.7,21.4,30.10,WNW,286,6.0,10.0,10,0.00,,,0.00,947.0,meteohub,2013-03-29 19:58:00,
2013-03-29 13:03:00,83.7,21.4,30.10,NNW,345,2.0,7.0,10,0.00,,,0.00,942.0,meteohub,2013-03-29 20:03:00,
2013-03-29 13:08:00,83.5,23.4,30.10,West,278,3.0,7.0,11,0.00,,,0.00,940.0,meteohub,2013-03-29 20:08:00,
2013-03-29 13:13:00,82.8,25.0,30.10,West,274,3.0,10.0,12,0.00,,,0.00,937.0,meteohub,2013-03-29 20:13:00,
2013-03-29 13:18:00,82.9,23.0,30.10,SW,236,5.0,11.0,11,0.00,,,0.00,932.0,meteohub,2013-03-29 20:18:00,
2013-03-29 13:23:00,83.1,23.2,30.09,SSW,210,1.0,11.0,11,0.00,,,0.00,923.0,meteohub,2013-03-29 20:23:00,
2013-03-29 13:28:00,83.7,18.9,30.09,WSW,257,3.0,9.0,9,0.00,,,0.00,930.0,meteohub,2013-03-29 20:28:00,
2013-03-29 13:33:00,83.8,16.3,30.09,WNW,286,2.0,10.0,8,0.00,,,0.00,925.0,meteohub,2013-03-29 20:33:00,
2013-03-29 13:38:00,84.4,16.7,30.09,WSW,252,4.0,10.0,8,0.00,,,0.00,918.0,meteohub,2013-03-29 20:38:00,
2013-03-29 13:43:00,84.0,19.0,30.08,WNW,292,2.0,10.0,9,0.00,,,0.00,912.0,meteohub,2013-03-29 20:43:00,
2013-03-29 13:48:00,84.6,16.9,30.08,SW,226,5.0,8.0,8,0.00,,,0.00,905.0,meteohub,2013-03-29 20:48:00,
2013-03-29 13:53:00,84.7,16.9,30.08,West,260,8.0,8.0,8,0.00,,,0.00,896.0,meteohub,2013-03-29 20:53:00,
2013-03-29 13:58:00,84.7,16.9,30.08,SW,217,3.0,12.0,8,0.00,,,0.00,895.0,meteohub,2013-03-29 20:58:00,
2013-03-29 14:03:00,84.7,19.6,30.07,SW,231,8.0,12.0,9,0.00,,,0.00,896.0,meteohub,2013-03-29 21:03:00,
2013-03-29 14:08:00,84.9,17.1,30.07,SSW,202,7.0,11.0,8,0.00,,,0.00,902.0,meteohub,2013-03-29 21:08:00,
2013-03-29 14:13:00,84.9,19.8,30.07,SW,216,4.0,12.0,9,0.00,,,0.00,782.0,meteohub,2013-03-29 21:13:00,
2013-03-29 14:18:00,84.6,19.6,30.06,SW,235,3.0,12.0,9,0.00,,,0.00,875.0,meteohub,2013-03-29 21:18:00,
2013-03-29 14:23:00,85.3,20.1,30.06,South,191,2.0,12.0,9,0.00,,,0.00,860.0,meteohub,2013-03-29 21:23:00,
2013-03-29 14:28:00,85.3,17.2,30.06,WSW,258,2.0,12.0,8,0.00,,,0.00,835.0,meteohub,2013-03-29 21:28:00,
2013-03-29 14:33:00,85.6,17.6,30.06,WSW,237,2.0,12.0,8,0.00,,,0.00,809.0,meteohub,2013-03-29 21:33:00,
2013-03-29 14:38:00,85.3,20.1,30.06,WSW,255,5.0,10.0,9,0.00,,,0.00,729.0,meteohub,2013-03-29 21:38:00,
2013-03-29 14:43:00,84.9,19.8,30.06,NW,314,5.0,10.0,9,0.00,,,0.00,480.0,meteohub,2013-03-29 21:43:00,
2013-03-29 14:48:00,84.2,21.7,30.06,WNW,300,6.0,9.0,10,0.00,,,0.00,399.0,meteohub,2013-03-29 21:48:00,
2013-03-29 14:53:00,84.6,21.9,30.06,West,259,6.0,9.0,10,0.00,,,0.00,860.0,meteohub,2013-03-29 21:53:00,
2013-03-29 14:58:00,85.3,22.6,30.06,West,279,7.0,13.0,10,0.00,,,0.00,812.0,meteohub,2013-03-29 21:58:00,
2013-03-29 15:03:00,85.6,20.3,30.05,West,281,3.0,13.0,9,0.00,,,0.00,726.0,meteohub,2013-03-29 22:03:00,
2013-03-29 15:08:00,86.0,20.7,30.05,West,261,3.0,13.0,9,0.00,,,0.00,795.0,meteohub,2013-03-29 22:08:00,
2013-03-29 15:13:00,86.2,20.7,30.05,WSW,257,4.0,10.0,9,0.00,,,0.00,752.0,meteohub,2013-03-29 22:13:00,
2013-03-29 15:18:00,86.0,17.8,30.05,WSW,240,6.0,12.0,8,0.00,,,0.00,726.0,meteohub,2013-03-29 22:18:00,
2013-03-29 15:23:00,85.5,14.4,30.05,WSW,255,6.0,12.0,7,0.00,,,0.00,707.0,meteohub,2013-03-29 22:23:00,
2013-03-29 15:28:00,85.6,17.6,30.05,SSW,202,5.0,10.0,8,0.00,,,0.00,689.0,meteohub,2013-03-29 22:28:00,
2013-03-29 15:33:00,85.3,14.2,30.05,SW,224,1.0,12.0,7,0.00,,,0.00,673.0,meteohub,2013-03-29 22:33:00,
2013-03-29 15:38:00,85.8,17.8,30.04,SSW,194,6.0,12.0,8,0.00,,,0.00,661.0,meteohub,2013-03-29 22:38:00,
2013-03-29 15:43:00,85.6,17.6,30.04,SW,221,2.0,10.0,8,0.00,,,0.00,642.0,meteohub,2013-03-29 22:43:00,
2013-03-29 15:48:00,85.5,17.4,30.04,WNW,287,3.0,10.0,8,0.00,,,0.00,606.0,meteohub,2013-03-29 22:48:00,
2013-03-29 15:53:00,85.1,17.2,30.04,NW,318,6.0,10.0,8,0.00,,,0.00,606.0,meteohub,2013-03-29 22:53:00,
2013-03-29 15:58:00,85.3,17.2,30.04,West,277,8.0,10.0,8,0.00,,,0.00,589.0,meteohub,2013-03-29 22:58:00,
2013-03-29 16:03:00,84.9,17.1,30.04,WSW,244,7.0,13.0,8,0.00,,,0.00,570.0,meteohub,2013-03-29 23:03:00,
2013-03-29 16:08:00,84.9,17.1,30.04,WNW,284,1.0,13.0,8,0.00,,,0.00,555.0,meteohub,2013-03-29 23:08:00,
2013-03-29 16:13:00,85.3,17.2,30.04,WSW,246,7.0,13.0,8,0.00,,,0.00,543.0,meteohub,2013-03-29 23:13:00,
2013-03-29 16:18:00,84.7,16.9,30.04,West,261,4.0,12.0,8,0.00,,,0.00,531.0,meteohub,2013-03-29 23:18:00,
2013-03-29 16:23:00,84.7,16.9,30.04,West,279,6.0,12.0,8,0.00,,,0.00,522.0,meteohub,2013-03-29 23:23:00,
2013-03-29 16:28:00,84.7,16.9,30.04,SW,233,4.0,12.0,8,0.00,,,0.00,508.0,meteohub,2013-03-29 23:28:00,
2013-03-29 16:33:00,84.7,13.8,30.04,WSW,257,4.0,12.0,7,0.00,,,0.00,487.0,meteohub,2013-03-29 23:33:00,
2013-03-29 16:38:00,84.6,13.6,30.04,WNW,292,3.0,12.0,7,0.00,,,0.00,462.0,meteohub,2013-03-29 23:38:00,
2013-03-29 16:43:00,84.7,13.8,30.04,SW,215,4.0,11.0,7,0.00,,,0.00,434.0,meteohub,2013-03-29 23:43:00,
2013-03-29 16:48:00,84.6,13.6,30.03,NW,321,6.0,8.0,7,0.00,,,0.00,408.0,meteohub,2013-03-29 23:48:00,
2013-03-29 16:53:00,84.2,13.5,30.04,West,267,7.0,10.0,7,0.00,,,0.00,390.0,meteohub,2013-03-29 23:53:00,
2013-03-29 16:59:00,83.8,13.3,30.04,West,271,4.0,11.0,7,0.00,,,0.00,369.0,meteohub,2013-03-29 23:59:00,
2013-03-29 17:04:00,83.7,13.1,30.04,WNW,287,3.0,11.0,7,0.00,,,0.00,348.0,meteohub,2013-03-30 00:04:00,
2013-03-29 17:09:00,83.7,9.7,30.04,NNW,331,5.0,11.0,6,0.00,,,0.00,329.0,meteohub,2013-03-30 00:09:00,
2013-03-29 17:14:00,83.3,12.7,30.04,NNW,346,3.0,11.0,7,0.00,,,0.00,309.0,meteohub,2013-03-30 00:14:00,
2013-03-29 17:19:00,83.1,12.7,30.04,NW,309,4.0,11.0,7,0.00,,,0.00,204.0,meteohub,2013-03-30 00:19:00,
2013-03-29 17:24:00,82.8,9.0,30.04,West,279,5.0,10.0,6,0.00,,,0.00,90.0,meteohub,2013-03-30 00:24:00,
2013-03-29 17:29:00,82.4,12.2,30.04,West,267,3.0,7.0,7,0.00,,,0.00,236.0,meteohub,2013-03-30 00:29:00,
2013-03-29 17:34:00,82.8,12.4,30.04,WNW,295,4.0,8.0,7,0.00,,,0.00,223.0,meteohub,2013-03-30 00:34:00,
2013-03-29 17:39:00,82.8,12.4,30.04,WNW,298,5.0,8.0,7,0.00,,,0.00,206.0,meteohub,2013-03-30 00:39:00,
2013-03-29 17:44:00,82.8,9.0,30.04,WSW,246,3.0,10.0,6,0.00,,,0.00,185.0,meteohub,2013-03-30 00:44:00,
2013-03-29 17:49:00,82.4,8.8,30.04,West,265,4.0,10.0,6,0.00,,,0.00,155.0,meteohub,2013-03-30 00:49:00,
2013-03-29 17:54:00,82.0,11.8,30.04,WSW,257,6.0,10.0,7,0.00,,,0.00,121.0,meteohub,2013-03-30 00:54:00,
2013-03-29 17:59:00,81.9,11.8,30.04,West,264,5.0,10.0,7,0.00,,,0.00,97.0,meteohub,2013-03-30 00:59:00,
2013-03-29 18:04:00,81.5,11.5,30.04,WNW,284,4.0,10.0,7,0.00,,,0.00,81.0,meteohub,2013-03-30 01:04:00,
2013-03-29 18:09:00,81.1,11.3,30.04,West,273,5.0,10.0,7,0.00,,,0.00,60.0,meteohub,2013-03-30 01:09:00,
2013-03-29 18:14:00,81.0,11.1,30.04,West,263,3.0,10.0,7,0.00,,,0.00,44.0,meteohub,2013-03-30 01:14:00,
2013-03-29 18:19:00,80.6,13.8,30.04,WSW,249,4.0,9.0,8,0.00,,,0.00,30.0,meteohub,2013-03-30 01:19:00,
2013-03-29 18:24:00,79.9,13.3,30.05,West,267,5.0,8.0,8,0.00,,,0.00,16.0,meteohub,2013-03-30 01:24:00,
2013-03-29 18:29:00,79.2,15.4,30.05,West,273,5.0,8.0,9,0.00,,,0.00,11.0,meteohub,2013-03-30 01:29:00,
2013-03-29 18:34:00,78.4,14.9,30.05,West,276,3.0,9.0,9,0.00,,,0.00,7.0,meteohub,2013-03-30 01:34:00,
2013-03-29 18:39:00,78.1,14.7,30.04,West,268,1.0,9.0,9,0.00,,,0.00,5.0,meteohub,2013-03-30 01:39:00,
2013-03-29 18:44:00,77.5,14.2,30.04,West,269,3.0,9.0,9,0.00,,,0.00,0.0,meteohub,2013-03-30 01:44:00,
2013-03-29 18:49:00,77.2,16.3,30.04,WNW,283,2.0,8.0,10,0.00,,,0.00,0.0,meteohub,2013-03-30 01:49:00,
2013-03-29 18:54:00,76.5,15.8,30.04,West,267,1.0,8.0,10,0.00,,,0.00,0.0,meteohub,2013-03-30 01:54:00,
2013-03-29 18:59:00,75.9,15.4,30.04,West,267,1.0,8.0,10,0.00,,,0.00,0.0,meteohub,2013-03-30 01:59:00,
2013-03-29 19:04:00,75.6,17.4,30.04,WNW,288,2.0,5.0,11,0.00,,,0.00,0.0,meteohub,2013-03-30 02:04:00,
2013-03-29 19:09:00,75.6,17.4,30.05,WNW,301,3.0,3.0,11,0.00,,,0.00,0.0,meteohub,2013-03-30 02:09:00,
2013-03-29 19:14:00,75.4,17.2,30.05,NNW,327,3.0,4.0,11,0.00,,,0.00,0.0,meteohub,2013-03-30 02:14:00,
2013-03-29 19:19:00,75.2,17.1,30.05,NNW,335,3.0,4.0,11,0.00,,,0.00,0.0,meteohub,2013-03-30 02:19:00,
2013-03-29 19:24:00,75.4,17.2,30.05,NNW,341,3.0,4.0,11,0.00,,,0.00,0.0,meteohub,2013-03-30 02:24:00,
2013-03-29 19:29:00,75.4,17.2,30.06,NNW,344,0.0,5.0,11,0.00,,,0.00,0.0,meteohub,2013-03-30 02:29:00,
2013-03-29 19:34:00,75.0,16.9,30.06,NNW,341,1.0,5.0,11,0.00,,,0.00,0.0,meteohub,2013-03-30 02:34:00,
2013-03-29 19:40:00,74.7,16.7,30.05,NNW,340,1.0,5.0,11,0.00,,,0.00,0.0,meteohub,2013-03-30 02:40:00,
2013-03-29 19:45:00,74.3,16.3,30.05,NNW,340,1.0,5.0,11,0.00,,,0.00,0.0,meteohub,2013-03-30 02:45:00,
2013-03-29 19:50:00,74.1,16.2,30.06,NNW,342,1.0,4.0,11,0.00,,,0.00,0.0,meteohub,2013-03-30 02:50:00,
2013-03-29 19:55:00,73.9,16.2,30.06,NNW,342,1.0,3.0,11,0.00,,,0.00,0.0,meteohub,2013-03-30 02:55:00,
2013-03-29 20:00:00,73.8,16.0,30.06,NNW,342,0.0,3.0,11,0.00,,,0.00,0.0,meteohub,2013-03-30 03:00:00,
2013-03-29 20:05:00,73.4,15.6,30.06,NNW,342,0.0,3.0,11,0.00,,,0.00,0.0,meteohub,2013-03-30 03:05:00,
2013-03-29 20:10:00,72.9,17.2,30.06,NNW,342,1.0,3.0,12,0.00,,,0.00,0.0,meteohub,2013-03-30 03:10:00,
2013-03-29 20:15:00,72.3,14.9,30.06,NNW,342,1.0,2.0,11,0.00,,,0.00,0.0,meteohub,2013-03-30 03:15:00,
2013-03-29 20:20:00,72.3,14.9,30.07,North,0,1.0,2.0,11,0.00,,,0.00,0.0,meteohub,2013-03-30 03:20:00,
2013-03-29 20:25:00,72.3,16.9,30.07,NNE,27,1.0,4.0,12,0.00,,,0.00,0.0,meteohub,2013-03-30 03:25:00,
2013-03-29 20:30:00,72.0,16.5,30.07,NNE,28,1.0,4.0,12,0.00,,,0.00,0.0,meteohub,2013-03-30 03:30:00,
2013-03-29 20:35:00,71.2,17.8,30.07,NE,39,1.0,4.0,13,0.00,,,0.00,0.0,meteohub,2013-03-30 03:35:00,
2013-03-29 20:40:00,70.9,17.6,30.08,NE,43,0.0,3.0,13,0.00,,,0.00,0.0,meteohub,2013-03-30 03:40:00,
2013-03-29 20:45:00,70.3,17.2,30.08,NE,53,1.0,3.0,13,0.00,,,0.00,0.0,meteohub,2013-03-30 03:45:00,
2013-03-29 20:50:00,70.2,17.1,30.08,NE,55,0.0,3.0,13,0.00,,,0.00,0.0,meteohub,2013-03-30 03:50:00,
2013-03-29 20:55:00,69.4,18.1,30.09,NE,55,1.0,3.0,14,0.00,,,0.00,0.0,meteohub,2013-03-30 03:55:00,
2013-03-29 21:00:00,68.5,17.4,30.09,NE,55,0.0,3.0,14,0.00,,,0.00,0.0,meteohub,2013-03-30 04:00:00,
2013-03-29 21:05:00,67.8,18.5,30.09,NE,55,1.0,2.0,15,0.00,,,0.00,0.0,meteohub,2013-03-30 04:05:00,
2013-03-29 21:10:00,67.5,19.8,30.09,NE,55,0.0,3.0,16,0.00,,,0.00,0.0,meteohub,2013-03-30 04:10:00,
2013-03-29 21:15:00,66.9,19.2,30.09,NE,55,0.0,3.0,16,0.00,,,0.00,0.0,meteohub,2013-03-30 04:15:00,
2013-03-29 21:20:00,66.4,18.9,30.09,NE,55,0.0,3.0,16,0.00,,,0.00,0.0,meteohub,2013-03-30 04:20:00,
2013-03-29 21:25:00,65.8,18.3,30.10,NE,55,0.0,2.0,16,0.00,,,0.00,0.0,meteohub,2013-03-30 04:25:00,
2013-03-29 21:30:00,65.1,19.2,30.10,NE,55,1.0,2.0,17,0.00,,,0.00,0.0,meteohub,2013-03-30 04:30:00,
2013-03-29 21:35:00,65.1,19.2,30.10,ENE,63,0.0,3.0,17,0.00,,,0.00,0.0,meteohub,2013-03-30 04:35:00,
2013-03-29 21:41:00,64.9,19.0,30.10,ENE,63,0.0,3.0,17,0.00,,,0.00,0.0,meteohub,2013-03-30 04:41:00,
2013-03-29 21:45:00,64.2,18.5,30.10,ENE,63,1.0,3.0,17,0.00,,,0.00,0.0,meteohub,2013-03-30 04:45:00,
2013-03-29 21:51:00,63.9,18.1,30.10,ENE,63,0.0,2.0,17,0.00,,,0.00,0.0,meteohub,2013-03-30 04:51:00,
2013-03-29 21:56:00,63.1,18.9,30.10,ENE,63,0.0,1.0,18,0.00,,,0.00,0.0,meteohub,2013-03-30 04:56:00,
2013-03-29 22:01:00,62.4,19.6,30.10,ENE,63,0.0,1.0,19,0.00,,,0.00,0.0,meteohub,2013-03-30 05:01:00,
2013-03-29 22:06:00,62.1,19.2,30.11,ENE,63,1.0,1.0,19,0.00,,,0.00,0.0,meteohub,2013-03-30 05:06:00,
2013-03-29 22:10:00,61.5,18.9,30.11,ENE,63,1.0,2.0,19,0.00,,,0.00,0.0,meteohub,2013-03-30 05:10:00,
2013-03-29 22:15:00,61.2,18.5,30.11,ENE,63,0.0,2.0,19,0.00,,,0.00,0.0,meteohub,2013-03-30 05:15:00,
2013-03-29 22:21:00,61.0,19.6,30.11,ENE,63,0.0,2.0,20,0.00,,,0.00,0.0,meteohub,2013-03-30 05:21:00,
2013-03-29 22:26:00,60.6,19.4,30.11,ENE,63,0.0,1.0,20,0.00,,,0.00,0.0,meteohub,2013-03-30 05:26:00,
2013-03-29 22:31:00,60.3,20.1,30.11,ENE,63,1.0,1.0,21,0.00,,,0.00,0.0,meteohub,2013-03-30 05:31:00,
2013-03-29 22:36:00,59.9,19.9,30.11,ENE,63,0.0,1.0,21,0.00,,,0.00,0.0,meteohub,2013-03-30 05:36:00,
2013-03-29 22:41:00,59.5,19.6,30.12,ENE,63,0.0,1.0,21,0.00,,,0.00,0.0,meteohub,2013-03-30 05:41:00,
2013-03-29 22:46:00,59.2,19.2,30.12,ENE,63,1.0,1.0,21,0.00,,,0.00,0.0,meteohub,2013-03-30 05:46:00,
2013-03-29 22:51:00,59.0,19.0,30.11,ENE,63,0.0,1.0,21,0.00,,,0.00,0.0,meteohub,2013-03-30 05:51:00,
2013-03-29 22:56:00,58.6,18.9,30.12,ENE,63,1.0,1.0,21,0.00,,,0.00,0.0,meteohub,2013-03-30 05:56:00,
2013-03-29 23:01:00,58.5,19.8,30.12,ENE,63,1.0,1.0,22,0.00,,,0.00,0.0,meteohub,2013-03-30 06:01:00,
2013-03-29 23:06:00,58.6,19.9,30.12,ENE,63,0.0,2.0,22,0.00,,,0.00,0.0,meteohub,2013-03-30 06:06:00,
2013-03-29 23:11:00,58.6,18.9,30.12,ENE,63,2.0,2.0,21,0.00,,,0.00,0.0,meteohub,2013-03-30 06:11:00,
2013-03-29 23:16:00,59.0,19.0,30.12,ENE,63,0.0,2.0,21,0.00,,,0.00,0.0,meteohub,2013-03-30 06:16:00,
2013-03-29 23:22:00,59.4,19.4,30.11,ENE,63,0.0,2.0,21,0.00,,,0.00,0.0,meteohub,2013-03-30 06:22:00,
2013-03-29 23:27:00,59.5,19.6,30.11,ENE,63,0.0,2.0,21,0.00,,,0.00,0.0,meteohub,2013-03-30 06:27:00,
2013-03-29 23:32:00,59.5,19.6,30.12,ENE,63,0.0,2.0,21,0.00,,,0.00,0.0,meteohub,2013-03-30 06:32:00,
2013-03-29 23:37:00,59.7,19.8,30.12,ENE,63,0.0,1.0,21,0.00,,,0.00,0.0,meteohub,2013-03-30 06:37:00,
2013-03-29 23:42:00,59.7,19.8,30.12,ENE,63,1.0,1.0,21,0.00,,,0.00,0.0,meteohub,2013-03-30 06:42:00,
2013-03-29 23:47:00,59.5,20.7,30.12,ENE,63,1.0,2.0,22,0.00,,,0.00,0.0,meteohub,2013-03-30 06:47:00,
2013-03-29 23:52:00,59.2,20.3,30.12,ENE,63,0.0,2.0,22,0.00,,,0.00,0.0,meteohub,2013-03-30 06:52:00,
2013-03-29 23:57:00,58.8,20.1,30.11,ENE,63,1.0,2.0,22,0.00,,,0.00,0.0,meteohub,2013-03-30 06:57:00,